Wind_Speed
27 28 28 29 30 30 29 26 25 26 25 25 27 28 28 29 28 29 27 26 26 25 24 24 24 24 25 25 25 24 24 23 22 21 21 20 19 18 17 16 15 14 13 12 12 11 11 10 9
30 30 31 32 33 32 30 28 28 27 28 28 30 31 31 31 31 31 29 28 28 27 27 27 27 26 27 27 27 27 26 25 24 24 23 22 21 20 19 18 17 16 15 14 13 13 12 11 10
32 33 34 35 35 34 32 31 31 31 31 32 32 33 34 34 33 33 32 31 30 30 29 29 30 29 29 29 29 29 28 27 26 26 26 25 24 23 22 21 20 18 17 16 15 14 13 12 12
34 35 36 37 36 35 34 34 35 34 34 34 35 36 36 36 36 35 34 33 33 32 32 32 32 32 32 32 31 31 30 30 29 28 27 27 26 25 24 23 22 21 19 18 17 16 15 14 13
36 37 39 39 38 37 37 37 37 37 37 37 38 37 37 38 38 38 37 36 35 35 35 34 34 34 34 34 34 33 33 32 31 30 30 29 29 27 26 25 24 23 21 20 19 18 16 15 15
38 39 41 41 40 39 39 39 40 40 39 39 40 40 39 39 40 40 40 39 38 37 37 37 36 36 36 36 36 36 35 35 34 33 32 32 31 30 29 28 27 25 24 22 21 20 18 17 16
38 40 41 42 42 41 41 41 42 42 41 41 42 43 42 41 41 42 42 42 41 40 39 39 39 38 39 38 38 38 38 37 36 36 35 34 33 32 31 30 29 28 26 24 23 21 20 18 17
40 42 43 43 43 43 42 43 44 45 44 44 45 45 43 43 43 44 44 45 43 42 41 40 40 40 40 40 40 40 40 39 39 38 37 36 36 35 33 32 31 29 28 26 24 23 22 20 19
41 43 44 44 45 45 44 45 46 47 47 46 47 47 46 46 45 45 46 46 46 44 44 44 43 42 42 41 42 42 42 41 41 41 40 39 38 37 35 34 33 31 30 28 26 25 24 22 21
41 43 43 44 45 45 45 47 47 48 48 48 48 48 48 47 48 47 47 47 47 46 46 45 45 44 44 43 43 44 43 43 43 42 42 41 40 39 37 36 35 33 31 30 28 27 25 24 23
40 41 41 42 43 44 45 46 47 49 49 49 49 48 48 48 49 49 48 47 48 47 47 47 47 46 46 45 45 45 45 44 44 44 43 42 42 40 39 38 36 35 33 31 30 28 27 26 24
39 39 40 41 43 43 44 44 45 48 49 49 49 49 49 48 49 50 49 48 49 49 48 48 49 48 48 48 47 47 47 46 46 45 45 44 43 42 41 39 38 36 35 33 32 30 29 27 26
38 38 39 40 41 42 43 43 44 46 48 48 49 49 50 48 48 50 50 50 49 49 48 50 50 49 49 49 49 49 48 48 47 47 46 45 45 44 43 41 39 38 36 35 34 32 30 29 28
37 37 36 37 38 39 41 41 43 43 46 47 48 49 49 48 48 48 49 50 49 48 48 48 50 50 50 50 50 50 50 50 49 48 47 46 46 46 45 43 41 40 38 36 35 34 32 30 29
35 34 33 35 36 37 39 39 40 41 42 44 46 48 48 48 48 48 49 49 49 49 48 49 51 50 51 51 51 51 52 51 50 49 49 48 48 47 46 44 43 41 40 38 36 35 34 32 31
32 32 32 32 34 36 38 37 37 39 41 42 43 45 46 46 46 48 48 48 48 49 47 48 50 51 51 51 51 51 52 52 51 50 50 50 49 48 48 46 44 43 41 40 38 37 35 34 32
31 31 32 31 32 34 36 36 36 38 40 41 41 42 44 45 45 46 47 47 48 47 47 48 48 50 51 51 50 51 51 51 52 52 51 51 50 50 49 47 45 44 43 42 40 38 37 35 34
30 31 31 32 32 33 35 35 34 36 38 39 40 41 42 44 44 44 45 46 46 46 46 46 47 49 49 50 50 51 51 52 52 53 52 51 51 50 50 48 46 46 45 43 41 39 38 37 36
30 31 31 31 32 34 34 33 33 33 35 37 38 39 42 43 43 42 43 43 44 45 45 45 46 48 49 49 50 50 51 52 52 53 53 51 51 50 51 50 48 46 45 44 43 40 39 39 38
31 31 32 32 31 34 34 32 32 32 32 34 35 37 39 40 40 39 40 42 42 43 44 44 45 47 49 49 49 49 50 51 52 51 51 51 51 50 50 50 49 48 46 45 43 42 41 40 38
30 32 32 34 33 34 34 32 28 29 30 31 31 33 35 37 38 36 37 39 40 41 42 43 44 46 47 47 49 49 49 50 52 51 51 51 52 51 50 50 48 47 45 44 43 43 42 40 39
31 31 32 34 35 34 35 35 29 28 28 29 30 31 33 33 35 35 34 35 37 39 40 41 43 45 46 46 48 49 49 48 50 51 51 51 51 51 51 51 49 48 46 45 43 43 43 41 40
31 31 32 33 34 33 32 34 29 28 27 27 28 29 30 30 31 33 33 34 34 36 38 39 41 43 45 46 46 48 49 48 48 50 50 51 51 49 50 50 50 48 46 45 43 43 42 41 41
32 32 32 32 32 32 31 33 30 27 27 26 26 27 27 27 29 31 33 33 34 36 38 39 40 42 45 46 47 48 48 47 47 48 49 51 50 51 50 50 50 49 47 45 43 42 42 42 41
32 32 32 32 33 32 31 32 30 29 27 25 25 25 26 26 27 29 31 32 33 35 37 38 39 40 43 45 46 46 47 46 47 48 48 49 49 49 48 48 49 49 47 44 43 42 43 43 41
32 31 31 32 33 32 31 31 28 27 26 24 24 24 24 26 27 29 30 31 33 34 35 37 38 40 42 44 44 44 45 45 46 47 46 47 47 48 46 45 45 47 47 46 44 43 42 42 41
33 32 31 32 32 32 31 29 27 25 24 24 24 24 25 25 26 27 28 30 32 33 34 36 37 39 41 44 45 46 45 45 46 46 46 48 47 47 47 46 46 45 45 45 44 43 42 42 41
31 31 31 31 33 34 33 30 27 24 24 24 24 24 25 27 27 27 28 29 31 33 34 35 37 39 40 41 43 43 45 46 47 47 47 48 48 48 46 47 47 45 44 44 44 43 43 42 41
31 31 31 31 32 34 35 32 27 26 25 25 25 25 25 25 27 27 28 29 30 31 33 35 36 38 39 40 42 42 42 44 45 45 46 48 48 48 47 47 46 45 45 45 44 44 43 42 41
32 31 31 31 32 33 34 33 27 27 27 26 26 26 26 27 28 28 27 28 29 30 32 35 36 38 39 40 40 40 41 43 45 44 45 46 47 47 46 47 47 45 44 44 43 43 43 42 40
Wind_Direction
264 264 264 265 265 264 264 264 264 262 261 258 256 254 254 254 254 255 254 252 250 249 247 245 244 243 242 242 242 243 243 243 244 243 243 245 247 248 249 250 252 256 259 263 267 272 277 277 277
265 265 265 265 265 265 265 266 266 265 263 259 257 256 255 255 255 255 255 253 250 248 246 245 244 243 243 243 243 243 243 243 244 244 244 245 246 248 249 250 253 255 258 260 263 267 271 274 275
267 266 266 265 265 267 268 267 266 264 262 260 257 256 256 256 256 256 255 254 251 249 247 245 245 244 244 244 243 243 243 243 244 245 245 245 246 247 249 250 252 255 257 258 260 264 267 269 272
268 267 266 266 267 268 268 267 265 263 261 260 258 257 256 256 255 255 255 254 252 250 248 246 245 245 244 244 244 243 243 243 243 244 244 245 246 246 248 250 252 254 256 257 258 261 263 266 268
269 268 267 267 268 268 267 265 264 263 261 260 260 259 258 257 256 254 254 253 252 250 248 246 245 245 244 244 244 244 244 244 243 243 244 246 246 246 247 249 251 253 255 256 257 258 260 262 265
272 270 269 269 268 267 266 264 264 262 260 260 260 260 259 258 257 255 254 253 252 251 248 247 246 245 245 244 244 244 244 244 243 243 245 246 246 246 246 248 251 253 254 255 256 255 256 259 262
274 273 272 271 269 267 265 263 262 262 261 260 260 259 258 257 256 255 253 252 252 250 249 247 246 246 245 245 244 244 243 244 244 244 244 244 245 245 245 246 249 252 254 255 254 253 254 257 259
275 274 273 271 269 267 265 264 262 262 261 260 259 258 257 256 255 254 253 251 250 249 248 247 246 246 246 245 244 244 244 243 243 244 243 243 244 244 244 245 247 250 253 253 252 251 253 255 257
277 275 274 272 270 268 266 263 262 261 260 259 258 258 257 255 254 253 252 251 250 249 248 246 245 245 245 245 244 244 244 243 243 243 242 242 242 243 244 244 245 247 250 252 250 250 251 253 255
278 277 277 274 272 270 267 264 262 259 259 258 257 257 257 256 254 253 251 249 249 248 248 247 246 245 245 245 244 244 244 243 243 242 242 241 241 242 243 243 244 245 248 250 249 249 250 251 254
279 279 277 275 274 272 269 266 263 261 259 257 256 255 255 256 255 254 251 249 247 248 247 247 246 246 245 244 244 243 243 243 243 242 241 240 240 241 241 242 242 243 245 247 248 248 249 251 253
281 280 278 276 275 273 271 269 266 264 261 258 257 256 255 254 255 253 250 248 247 247 246 246 245 245 244 243 243 242 242 242 242 241 240 239 239 239 240 240 241 243 244 245 246 247 248 250 252
283 281 280 279 277 275 274 272 269 266 263 260 258 256 256 253 252 251 249 247 247 247 246 246 245 245 244 243 242 241 241 240 240 240 240 239 238 238 238 239 241 242 243 243 244 245 247 249 250
285 284 282 281 280 278 276 274 270 266 263 261 258 255 254 252 250 248 247 247 247 247 246 245 245 244 244 243 241 240 239 239 239 238 238 237 237 237 238 239 240 241 241 243 243 244 246 247 249
286 284 283 283 283 281 278 276 273 269 264 261 259 255 253 251 248 247 247 248 248 248 247 245 244 244 244 242 241 239 238 237 237 237 237 236 235 235 237 238 239 240 240 241 243 244 245 246 248
288 286 284 284 286 284 281 280 276 272 266 262 259 255 252 250 248 246 247 248 248 248 247 246 244 243 243 241 239 238 238 237 236 236 236 235 234 234 235 237 238 239 240 240 242 243 244 245 247
290 287 287 287 288 287 285 284 280 275 270 265 261 255 252 249 246 245 247 248 249 249 247 245 243 243 241 239 238 236 236 236 235 235 235 233 233 233 234 236 237 239 240 240 241 243 243 245 247
295 291 290 291 290 289 287 285 282 276 272 268 263 256 252 247 246 246 247 248 248 248 246 244 241 240 239 237 236 235 234 235 235 234 234 233 232 232 233 234 236 238 239 240 240 241 243 244 246
299 294 294 294 294 291 287 287 284 278 275 272 264 258 254 249 246 245 247 247 247 247 245 244 241 238 235 236 236 235 234 233 233 233 233 232 232 231 232 233 234 236 237 239 240 240 242 243 245
302 298 297 296 293 293 291 289 286 282 278 273 265 259 255 250 245 246 248 247 247 246 243 243 241 237 235 235 235 235 234 233 232 233 231 231 231 231 231 232 234 235 236 238 239 240 241 242 244
302 302 300 298 294 294 293 290 289 284 280 273 269 264 259 250 246 246 246 245 246 246 244 242 241 237 235 234 234 233 232 231 231 230 231 230 230 230 230 231 232 234 236 237 238 239 241 242 244
306 302 301 300 300 299 296 293 290 287 281 274 272 265 258 252 248 246 248 248 247 244 242 241 240 237 234 234 234 232 230 230 229 229 230 229 229 230 230 230 232 234 235 238 238 238 240 241 243
307 304 300 301 302 301 299 295 291 287 283 277 272 265 259 253 249 248 248 247 246 243 241 240 239 236 233 231 231 230 229 229 228 229 229 228 228 229 229 230 232 232 234 237 238 239 240 241 243
308 305 303 302 302 303 302 298 293 290 289 281 273 265 259 253 250 250 247 246 246 244 242 239 239 236 232 229 229 229 229 228 227 228 229 229 229 229 230 231 232 233 233 235 237 238 240 241 244
309 307 305 304 303 305 304 299 297 293 290 281 274 266 257 251 252 250 248 246 246 244 241 239 237 235 231 228 227 227 228 227 226 227 228 228 228 228 230 231 232 232 232 234 236 238 241 243 244
308 307 306 305 304 304 303 301 300 295 287 280 275 269 260 253 252 251 249 246 246 245 242 239 237 234 230 228 226 226 227 226 227 226 227 228 228 228 229 230 232 232 233 233 236 239 242 243 244
308 305 305 303 302 302 304 304 300 294 284 278 273 270 264 255 254 253 251 249 246 243 239 238 237 234 231 229 227 227 227 229 228 228 229 229 229 229 230 230 232 233 233 234 237 239 241 244 245
305 306 306 305 304 302 302 304 304 294 286 279 274 273 268 259 253 252 249 248 246 242 240 238 235 233 230 229 227 228 229 229 228 230 230 229 230 230 231 231 232 234 234 235 237 239 241 244 246
305 306 306 304 302 300 299 301 303 294 287 281 275 273 270 263 256 255 252 249 248 244 239 236 233 231 230 228 228 228 229 228 227 229 229 229 229 230 231 231 232 234 235 236 237 240 241 243 247
302 304 303 300 299 298 297 300 300 294 287 281 276 272 269 269 264 259 253 250 248 245 240 236 233 231 229 228 228 228 229 229 228 230 229 229 228 229 231 231 232 233 236 237 239 241 243 244 246
Height
5821 5821 5822 5822 5822 5822 5823 5826 5827 5829 5830 5831 5831 5831 5832 5833 5835 5838 5839 5840 5841 5843 5845 5846 5848 5849 5850 5852 5853 5855 5856 5858 5859 5861 5862 5863 5864 5865 5865 5866 5867 5867 5867 5867 5867 5867 5867 5867 5867
5815 5815 5816 5815 5815 5815 5818 5821 5822 5823 5824 5824 5824 5824 5825 5826 5828 5830 5832 5834 5836 5838 5840 5841 5843 5845 5846 5848 5849 5851 5853 5854 5856 5857 5859 5860 5861 5862 5863 5864 5864 5865 5865 5865 5865 5866 5866 5866 5865
5808 5808 5808 5808 5808 5810 5813 5815 5816 5816 5816 5816 5817 5817 5819 5820 5822 5823 5825 5827 5830 5832 5834 5836 5838 5839 5841 5843 5845 5847 5848 5850 5852 5854 5855 5856 5858 5859 5860 5861 5862 5862 5863 5863 5863 5863 5864 5864 5863
5801 5801 5800 5800 5801 5804 5806 5807 5807 5807 5808 5808 5809 5810 5811 5813 5814 5816 5818 5820 5823 5825 5827 5829 5832 5834 5836 5838 5839 5841 5843 5846 5847 5849 5851 5852 5854 5855 5857 5858 5859 5859 5860 5860 5861 5861 5861 5861 5861
5793 5792 5792 5791 5793 5796 5797 5797 5797 5798 5799 5800 5800 5802 5803 5804 5806 5807 5809 5812 5815 5817 5820 5822 5825 5827 5829 5832 5834 5836 5838 5840 5842 5844 5846 5848 5850 5851 5853 5854 5855 5856 5857 5857 5858 5858 5859 5859 5859
5784 5783 5782 5782 5785 5787 5787 5787 5787 5788 5790 5790 5791 5792 5794 5796 5796 5798 5801 5803 5806 5809 5812 5814 5817 5819 5822 5825 5827 5830 5832 5834 5837 5839 5841 5843 5845 5846 5848 5850 5851 5852 5853 5854 5855 5855 5855 5856 5856
5775 5773 5772 5773 5774 5775 5777 5776 5776 5777 5778 5780 5780 5782 5784 5786 5787 5788 5791 5793 5796 5800 5803 5806 5809 5811 5814 5817 5820 5823 5825 5828 5830 5833 5835 5837 5839 5841 5843 5845 5846 5848 5849 5850 5851 5852 5852 5852 5853
5764 5763 5761 5761 5762 5764 5765 5764 5764 5765 5767 5768 5768 5770 5773 5776 5776 5778 5780 5783 5786 5790 5794 5797 5800 5803 5806 5809 5812 5815 5818 5820 5823 5826 5828 5831 5833 5835 5837 5839 5841 5843 5844 5846 5847 5848 5848 5849 5849
5752 5751 5750 5750 5749 5751 5752 5751 5751 5752 5753 5755 5756 5758 5761 5763 5765 5767 5770 5773 5776 5780 5783 5787 5790 5793 5796 5800 5803 5806 5809 5812 5815 5818 5821 5824 5826 5828 5831 5833 5835 5837 5839 5841 5842 5843 5844 5845 5845
5740 5738 5739 5738 5736 5737 5737 5737 5738 5738 5738 5741 5743 5745 5747 5749 5752 5755 5758 5762 5765 5769 5772 5776 5780 5783 5787 5790 5793 5797 5800 5803 5807 5810 5813 5816 5819 5822 5824 5826 5829 5831 5833 5835 5837 5839 5840 5840 5841
5728 5727 5726 5724 5722 5721 5722 5722 5722 5722 5724 5727 5729 5732 5734 5736 5738 5741 5745 5749 5753 5757 5761 5764 5768 5772 5776 5780 5783 5786 5790 5794 5797 5801 5805 5808 5811 5814 5817 5819 5822 5825 5827 5830 5831 5833 5835 5836 5836
5717 5715 5713 5712 5709 5708 5707 5707 5708 5707 5710 5713 5715 5718 5720 5723 5725 5728 5731 5736 5740 5744 5748 5752 5755 5760 5764 5768 5772 5776 5780 5784 5788 5792 5796 5799 5803 5806 5809 5812 5815 5818 5821 5823 5825 5828 5829 5830 5831
5705 5704 5701 5699 5696 5695 5693 5692 5693 5694 5695 5697 5699 5702 5705 5709 5711 5714 5718 5722 5727 5731 5735 5738 5743 5747 5751 5755 5760 5764 5769 5773 5777 5782 5786 5790 5794 5798 5801 5805 5808 5811 5814 5817 5819 5821 5824 5825 5826
5694 5692 5690 5687 5684 5682 5680 5679 5678 5680 5680 5683 5685 5688 5691 5694 5698 5700 5704 5708 5713 5718 5722 5726 5729 5734 5738 5743 5748 5752 5757 5761 5766 5771 5776 5781 5785 5789 5793 5797 5800 5804 5807 5810 5812 5815 5817 5819 5820
5683 5681 5679 5676 5673 5671 5669 5669 5667 5667 5667 5669 5671 5674 5676 5680 5684 5688 5692 5696 5700 5705 5708 5712 5716 5721 5725 5730 5734 5739 5744 5749 5755 5760 5765 5770 5775 5780 5784 5788 5792 5796 5799 5802 5805 5808 5810 5813 5814
5673 5671 5670 5668 5664 5661 5660 5659 5659 5655 5654 5656 5659 5661 5664 5667 5671 5675 5679 5683 5687 5691 5695 5699 5703 5707 5711 5716 5721 5726 5731 5737 5743 5749 5754 5760 5765 5770 5775 5779 5784 5788 5791 5794 5797 5801 5803 5806 5808
5664 5661 5659 5658 5656 5652 5649 5648 5648 5644 5643 5644 5646 5648 5650 5654 5658 5662 5666 5670 5674 5678 5682 5685 5690 5693 5698 5703 5708 5713 5719 5725 5731 5736 5742 5749 5755 5760 5765 5770 5775 5779 5782 5786 5790 5793 5796 5799 5801
5655 5652 5650 5648 5646 5642 5639 5638 5637 5634 5633 5633 5634 5636 5638 5642 5646 5650 5654 5658 5661 5664 5668 5672 5676 5680 5685 5690 5696 5701 5707 5713 5718 5724 5731 5738 5744 5749 5755 5760 5765 5770 5774 5778 5781 5785 5789 5791 5794
5647 5644 5642 5640 5637 5633 5630 5628 5627 5625 5623 5623 5623 5624 5626 5630 5634 5638 5641 5645 5648 5652 5656 5660 5664 5668 5672 5677 5683 5689 5695 5701 5707 5713 5720 5726 5733 5739 5745 5750 5755 5760 5765 5769 5773 5777 5780 5783 5786
5640 5637 5635 5633 5630 5625 5621 5620 5618 5616 5615 5613 5613 5614 5616 5619 5623 5626 5629 5633 5636 5639 5644 5648 5651 5656 5661 5666 5672 5677 5683 5689 5695 5701 5708 5716 5722 5728 5734 5740 5746 5751 5756 5760 5765 5769 5772 5775 5778
5634 5630 5627 5624 5622 5618 5613 5612 5612 5609 5606 5605 5604 5605 5606 5609 5613 5616 5619 5622 5625 5628 5632 5636 5640 5644 5649 5655 5660 5665 5671 5677 5683 5690 5698 5705 5712 5718 5724 5730 5736 5741 5746 5751 5756 5760 5764 5767 5770
5628 5624 5619 5616 5612 5610 5606 5601 5605 5602 5599 5597 5596 5596 5597 5600 5603 5606 5609 5612 5615 5619 5622 5626 5629 5633 5639 5644 5649 5655 5660 5666 5673 5680 5687 5694 5702 5708 5714 5720 5726 5731 5737 5742 5747 5751 5755 5758 5762
5620 5617 5613 5609 5605 5602 5599 5593 5596 5595 5592 5590 5589 5589 5590 5592 5595 5598 5600 5603 5606 5609 5612 5616 5619 5623 5628 5633 5639 5644 5651 5657 5663 5669 5676 5684 5691 5698 5704 5710 5716 5722 5728 5733 5738 5742 5746 5750 5754
5613 5610 5606 5602 5599 5595 5593 5587 5587 5586 5585 5583 5582 5582 5583 5585 5588 5590 5592 5594 5597 5601 5603 5606 5610 5614 5618 5623 5629 5635 5641 5647 5653 5660 5667 5674 5681 5688 5694 5700 5707 5713 5719 5724 5729 5734 5738 5741 5745
5608 5603 5598 5594 5591 5589 5585 5581 5581 5580 5578 5576 5576 5576 5577 5579 5581 5582 5584 5587 5589 5592 5594 5597 5600 5604 5609 5614 5619 5626 5632 5638 5644 5652 5658 5665 5672 5679 5685 5691 5697 5703 5709 5714 5720 5724 5729 5732 5736
5602 5598 5593 5588 5583 5581 5579 5576 5577 5574 5572 5570 5569 5570 5571 5572 5573 5575 5577 5578 5580 5582 5585 5589 5592 5596 5600 5606 5611 5617 5623 5629 5636 5643 5649 5655 5663 5670 5676 5682 5688 5694 5699 5705 5710 5716 5720 5723 5726
5595 5591 5588 5582 5577 5574 5572 5571 5571 5569 5565 5563 5563 5563 5563 5565 5567 5568 5570 5571 5573 5575 5578 5581 5584 5588 5592 5597 5603 5609 5614 5620 5627 5633 5639 5646 5653 5660 5667 5673 5680 5685 5690 5696 5701 5706 5711 5714 5718
5590 5585 5581 5576 5570 5566 5565 5565 5565 5562 5559 5557 5557 5557 5557 5559 5560 5562 5563 5564 5566 5568 5570 5573 5576 5579 5583 5588 5594 5600 5606 5611 5618 5624 5630 5637 5644 5651 5658 5664 5671 5676 5681 5687 5692 5698 5702 5705 5708
5584 5580 5575 5570 5566 5561 5556 5560 5559 5556 5553 5552 5551 5551 5551 5552 5553 5554 5555 5556 5558 5559 5562 5565 5567 5571 5575 5580 5585 5591 5597 5602 5609 5615 5621 5628 5635 5642 5649 5656 5662 5667 5672 5678 5683 5688 5692 5696 5699
5576 5573 5569 5565 5561 5556 5550 5554 5553 5550 5547 5546 5545 5545 5545 5546 5546 5546 5547 5549 5550 5552 5554 5556 5559 5563 5567 5572 5578 5583 5588 5594 5600 5606 5613 5619 5626 5634 5640 5646 5652 5658 5664 5669 5674 5679 5683 5687 5690